This demonstration page uses our WeatherBlox Daily Observations layout. Learn more.

Left ArrowRight Arrow

38.83388, -104.82136

Hourly Observations for April 20, 2017

Temp ( °F °C ) Dew Point ( °F °C ) Humidity (%) Winds ( mph kmh ) Pressure ( in mb ) Visibility ( mi km ) Precip ( " mm )
12:58 am 00:58 Partly Cloudy 46 7.8 30 -1.2 53 53 N 9 15 30.06 1018 10 16 0.00 0.00
1:58 am 01:58 Mostly Cloudy 45 7.3 30 -1 56 56 NNW 8 13 30.09 1019 10 16 0.00 0.00
2:58 am 02:58 Cloudy 45 7 30 -1.3 56 56 NNW 6 9 30.09 1019 10 16 0.00 0.00
3:58 am 03:58 Cloudy 44 6.4 30 -1.3 58 58 NNE 3 6 29.79 1009 10 16 0.00 0.00
4:58 am 04:58 Cloudy 42 5.6 30 -1.2 62 62 Calm 29.79 1009 10 16 0.00 0.00
5:58 am 05:58 Mostly Cloudy 41 4.8 30 -1 66 66 SSW 5 7 29.80 1009 10 16 0.00 0.00
6:58 am 06:58 Cloudy 40 4.4 31 -0.4 71 71 SE 6 9 29.82 1010 10 16 0.00 0.00
7:58 am 07:58 Mostly Cloudy 41 5 32 -0.2 69 69 S 13 20 29.87 1012 10 16 0.00 0.00
8:58 am 08:58 Mostly Sunny 44 6.8 32 0.2 63 63 SSE 18 30 29.84 1011 10 16 0.00 0.00
9:58 am 09:58 Mostly Cloudy 43 5.9 32 -0.1 66 66 SSE 17 28 29.86 1011 10 16 0.00 0.00
10:58 am 10:58 Mostly Cloudy 46 7.7 31 -0.4 57 57 SSE 21 33 29.82 1010 10 16 0.00 0.00
11:59 am 11:59 Mostly Cloudy 45 7.3 32 -0.1 60 60 SSE 21 33 29.82 1010 10 16 0.00 0.00
12:24 pm 12:24 Mostly Cloudy 45 7 32 0 61 61 S 20 31 29.81 1009 10 16 0.00 0.00
12:39 pm 12:39 Mostly Cloudy 45 7 30 -1 57 57 S 16 26 29.80 1009 10 16 0.00 0.00
12:58 pm 12:58 Mostly Cloudy 46 7.9 30 -1 54 54 SSE 15 24 29.79 1009 10 16 0.00 0.00
1:58 pm 13:58 Mostly Cloudy 48 9.1 29 -1.9 46 46 SSE 20 31 29.75 1007 10 16 0.00 0.00
2:58 pm 14:58 Mostly Cloudy 49 9.6 27 -2.6 43 43 S 15 24 29.70 1006 10 16 0.00 0.00
3:58 pm 15:58 Cloudy 49 9.2 28 -2.3 45 45 SSE 33 54 29.70 1006 10 16 0.00 0.00
3:59 pm 15:59 Cloudy with Drizzle 46 8 30 -1 53 53 S 20 31 29.72 1007 10 16 0.00 0.00
4:49 pm 16:49 Cloudy with Light Rain 41 5 36 2 81 81 S 18 30 29.77 1008 8 13 0.00 0.00
4:58 pm 16:58 Cloudy with Light Rain 41 4.8 37 2.7 86 86 S 16 26 29.77 1008 6 10 0.01 0.25
5:08 pm 17:08 Cloudy with Light Rain 39 4 37 3 93 93 SSE 16 26 29.78 1009 8 13 0.00 0.00
5:18 pm 17:18 Cloudy with Rain 39 4 37 3 93 93 SSE 15 24 29.79 1009 5 8 0.00 0.00
5:28 pm 17:28 Mostly Cloudy with Rain 37 3 37 3 100 100 SSE 15 24 29.80 1009 1 2 0.00 0.00
5:43 pm 17:43 Mostly Cloudy with Rain 37 3 37 3 100 100 S 9 15 29.80 1009 5 8 0.00 0.00
5:48 pm 17:48 Mostly Cloudy with Rain 37 3 37 3 100 100 S 13 20 29.80 1009 4 6 0.00 0.00
5:58 pm 17:58 Mostly Cloudy with Rain 39 3.7 36 2 89 89 S 13 20 29.80 1009 4 6 0.09 2.29
6:58 pm 18:58 Cloudy with Rain 40 4.7 35 1.7 81 81 SW 8 13 29.76 1008 10 16 0.03 0.76
6:59 pm 18:59 Cloudy with Thunderstorms 41 5 36 2 81 81 WSW 6 9 29.76 1008 8 13 0.00 0.00
7:13 pm 19:13 Cloudy with Rain and Nearby Thunderstorms 39 4 34 1 81 81 SE 5 7 29.77 1008 5 8 0.00 0.00
7:58 pm 19:58 Cloudy with Rain 38 3.1 36 2.3 95 95 SSW 5 7 29.77 1008 3 5 0.14 3.56
8:58 pm 20:58 Cloudy with Rain 39 3.8 36 2.3 90 90 SSW 6 9 29.76 1008 9 14 0.02 0.51
9:58 pm 21:58 Cloudy with Rain 38 3.5 36 2.4 93 93 Calm 29.79 1009 2 4 0.13 3.30
10:18 pm 22:18 Cloudy with Rain 37 3 36 2 93 93 N 5 7 29.75 1008 4 6 0.00 0.00
10:23 pm 22:23 Cloudy with Rain 37 3 36 2 93 93 WNW 8 13 29.77 1008 10 16 0.00 0.00
10:48 pm 22:48 Cloudy with Light Rain 37 3 36 2 93 93 SE 6 9 29.75 1008 10 16 0.00 0.00
10:53 pm 22:53 Cloudy with Light Rain 37 3 36 2 93 93 ESE 5 7 29.75 1008 10 16 0.00 0.00
10:58 pm 22:58 Cloudy with Light Rain 37 2.8 36 2.1 95 95 SSE 6 9 29.75 1008 10 16 0.06 1.52
11:23 pm 23:23 Cloudy with Light Rain 37 3 36 2 93 93 Calm 29.73 1007 10 16 0.00 0.00
11:48 pm 23:48 Cloudy with Light Rain 37 3 36 2 93 93 S 3 6 29.73 1007 10 16 0.00 0.00
11:58 pm 23:58 Cloudy with Light Rain 38 3.1 36 2.4 95 95 SSW 6 9 29.73 1007 10 16 0.01 0.25

Powered by AerisWeather